• In Uzbekistan
  • List of Countries
  • For 7 days
  • Water Temperature
  • Weather Map
  • Weather Widgets
  • user-avatar
    Login

    Hourly Weather Khulna

    Today, 29 January, Wednesday

    Time Temperature Precipitation Wind Pressure Humidity
    00:00 +19°C° 0 mm 1 mps 760 mmHg 65%
    01:00 +19°C° 0 mm 1 mps 760 mmHg 67%
    02:00 +19°C° 0 mm 1 mps 760 mmHg 69%
    03:00 +19°C° 0 mm 1 mps 760 mmHg 72%
    04:00 +19°C° 0 mm 1 mps 760 mmHg 72%
    05:00 +19°C° 0 mm 1 mps 760 mmHg 72%
    06:00 +19°C° 0 mm 1 mps 760 mmHg 72%
    07:00 +21°C° 0 mm 1 mps 760 mmHg 66%
    08:00 +22°C° 0 mm 1 mps 761 mmHg 60%
    09:00 +24°C° 0 mm 2 mps 762 mmHg 55%
    10:00 +25°C° 0 mm 2 mps 761 mmHg 50%
    11:00 +27°C° 0 mm 2 mps 761 mmHg 46%
    12:00 +28°C° 0 mm 2 mps 761 mmHg 42%
    13:00 +29°C° 0 mm 2 mps 760 mmHg 40%
    14:00 +29°C° 0 mm 2 mps 759 mmHg 39%
    15:00 +30°C° 0 mm 2 mps 759 mmHg 37%
    16:00 +29°C° 0 mm 2 mps 758 mmHg 42%
    17:00 +27°C° 0 mm 3 mps 758 mmHg 46%
    18:00 +26°C° 0 mm 3 mps 758 mmHg 50%
    19:00 +25°C° 0 mm 3 mps 759 mmHg 53%
    20:00 +24°C° 0 mm 3 mps 759 mmHg 56%
    21:00 +22°C° 0 mm 3 mps 760 mmHg 60%
    22:00 +22°C° 0 mm 3 mps 759 mmHg 61%
    23:00 +21°C° 0 mm 2 mps 759 mmHg 62%

    Tomorrow, 30 January, Thursday

    Time Temperature Precipitation Wind Pressure Humidity
    00:00 +22°C° 0 mm 1 mps 759 mmHg 63%
    01:00 +21°C° 0 mm 2 mps 759 mmHg 66%
    02:00 +20°C° 0 mm 2 mps 758 mmHg 70%
    03:00 +20°C° 0 mm 2 mps 758 mmHg 73%
    04:00 +20°C° 0.1 mm 2 mps 758 mmHg 76%
    05:00 +21°C° 0.1 mm 1 mps 758 mmHg 79%
    06:00 +21°C° 0.1 mm 1 mps 758 mmHg 81%
    07:00 +22°C° 0.7 mm 1 mps 759 mmHg 77%
    08:00 +23°C° 0.7 mm 1 mps 759 mmHg 74%
    09:00 +24°C° 0.7 mm 1 mps 760 mmHg 70%
    10:00 +26°C° 0.6 mm 2 mps 760 mmHg 61%
    11:00 +28°C° 0.6 mm 2 mps 759 mmHg 53%
    12:00 +30°C° 0.6 mm 2 mps 759 mmHg 44%
    13:00 +30°C° 0 mm 2 mps 758 mmHg 43%
    14:00 +31°C° 0 mm 2 mps 757 mmHg 42%
    15:00 +31°C° 0 mm 1 mps 757 mmHg 41%
    16:00 +29°C° 0.1 mm 1 mps 757 mmHg 49%
    17:00 +27°C° 0.1 mm 2 mps 756 mmHg 58%
    18:00 +25°C° 0.1 mm 2 mps 756 mmHg 66%
    19:00 +24°C° 0.1 mm 1 mps 757 mmHg 70%
    20:00 +24°C° 0.1 mm 1 mps 757 mmHg 73%
    21:00 +23°C° 0.1 mm 1 mps 758 mmHg 77%
    22:00 +23°C° 0 mm 1 mps 758 mmHg 79%
    23:00 +22°C° 0 mm 1 mps 758 mmHg 81%

    Day after tomorrow, 31 January, Friday

    Time Temperature Precipitation Wind Pressure Humidity
    00:00 +22°C° 0 mm 1 mps 758 mmHg 83%
    01:00 +21°C° 0 mm 1 mps 757 mmHg 84%
    02:00 +21°C° 0 mm 1 mps 757 mmHg 86%
    03:00 +20°C° 0 mm 1 mps 757 mmHg 87%
    04:00 +19°C° 0 mm 2 mps 757 mmHg 86%
    05:00 +19°C° 0 mm 2 mps 758 mmHg 84%
    06:00 +19°C° 0 mm 2 mps 758 mmHg 83%
    07:00 +20°C° 0 mm 3 mps 759 mmHg 71%
    08:00 +21°C° 0 mm 4 mps 759 mmHg 60%
    09:00 +23°C° 0 mm 4 mps 760 mmHg 49%
    10:00 +25°C° 0 mm 4 mps 760 mmHg 44%
    11:00 +27°C° 0 mm 3 mps 760 mmHg 39%
    12:00 +28°C° 0 mm 3 mps 759 mmHg 35%
    13:00 +29°C° 0 mm 2 mps 759 mmHg 33%
    14:00 +29°C° 0 mm 2 mps 758 mmHg 31%
    15:00 +30°C° 0 mm 2 mps 757 mmHg 29%
    16:00 +28°C° 0 mm 2 mps 757 mmHg 32%
    17:00 +27°C° 0 mm 2 mps 757 mmHg 35%
    18:00 +25°C° 0 mm 2 mps 757 mmHg 37%
    19:00 +24°C° 0 mm 2 mps 758 mmHg 39%
    20:00 +23°C° 0 mm 2 mps 758 mmHg 41%
    21:00 +21°C° 0 mm 2 mps 759 mmHg 43%
    22:00 +20°C° 0 mm 2 mps 759 mmHg 45%
    23:00 +21°C° 0 mm 1 mps 759 mmHg 46%

    1 February, Saturday

    Time Temperature Precipitation Wind Pressure Humidity
    00:00 +20°C° 0 mm 1 mps 759 mmHg 48%
    01:00 +20°C° 0 mm 1 mps 759 mmHg 49%
    02:00 +19°C° 0 mm 1 mps 759 mmHg 50%
    03:00 +19°C° 0 mm 1 mps 758 mmHg 51%
    04:00 +19°C° 0 mm 1 mps 759 mmHg 51%
    05:00 +18°C° 0 mm 1 mps 759 mmHg 51%
    06:00 +18°C° 0 mm 1 mps 759 mmHg 51%
    07:00 +19°C° 0 mm 2 mps 760 mmHg 47%
    08:00 +20°C° 0 mm 2 mps 760 mmHg 42%
    09:00 +23°C° 0 mm 2 mps 761 mmHg 38%
    10:00 +25°C° 0 mm 2 mps 761 mmHg 34%
    11:00 +27°C° 0 mm 2 mps 761 mmHg 31%
    12:00 +28°C° 0 mm 2 mps 761 mmHg 27%
    13:00 +29°C° 0 mm 2 mps 760 mmHg 25%
    14:00 +29°C° 0 mm 2 mps 760 mmHg 24%
    15:00 +30°C° 0 mm 2 mps 759 mmHg 22%
    16:00 +28°C° 0 mm 2 mps 759 mmHg 25%
    17:00 +27°C° 0 mm 2 mps 759 mmHg 28%
    18:00 +25°C° 0 mm 2 mps 759 mmHg 31%
    19:00 +24°C° 0 mm 2 mps 759 mmHg 33%
    20:00 +23°C° 0 mm 2 mps 760 mmHg 36%
    21:00 +22°C° 0 mm 1 mps 760 mmHg 38%
    22:00 +21°C° 0 mm 1 mps 760 mmHg 39%
    23:00 +21°C° 0 mm 1 mps 760 mmHg 41%

    2 February, Sunday

    Time Temperature Precipitation Wind Pressure Humidity
    00:00 +19°C° 0 mm 0 mps 760 mmHg 42%
    01:00 +19°C° 0 mm 0 mps 760 mmHg 41%
    02:00 +19°C° 0 mm 0 mps 760 mmHg 40%
    03:00 +19°C° 0 mm 0 mps 759 mmHg 40%
    04:00 +21°C° 0 mm 1 mps 760 mmHg 40%
    05:00 +20°C° 0 mm 1 mps 760 mmHg 40%
    06:00 +19°C° 0 mm 2 mps 760 mmHg 40%
    07:00 +20°C° 0 mm 2 mps 761 mmHg 39%
    08:00 +20°C° 0 mm 2 mps 761 mmHg 38%
    09:00 +21°C° 0 mm 2 mps 762 mmHg 38%
    10:00 +24°C° 0 mm 2 mps 762 mmHg 33%
    11:00 +26°C° 0 mm 2 mps 762 mmHg 28%
    12:00 +28°C° 0 mm 2 mps 762 mmHg 24%
    13:00 +28°C° 0 mm 2 mps 761 mmHg 23%
    14:00 +29°C° 0 mm 2 mps 760 mmHg 23%
    15:00 +30°C° 0 mm 2 mps 760 mmHg 23%
    16:00 +28°C° 0 mm 2 mps 760 mmHg 26%
    17:00 +27°C° 0 mm 2 mps 760 mmHg 29%
    18:00 +25°C° 0 mm 2 mps 759 mmHg 32%
    19:00 +24°C° 0 mm 2 mps 760 mmHg 34%
    20:00 +23°C° 0 mm 2 mps 760 mmHg 36%
    21:00 +20°C° 0 mm 2 mps 761 mmHg 38%
    22:00 +20°C° 0 mm 2 mps 761 mmHg 39%
    23:00 +20°C° 0 mm 1 mps 761 mmHg 39%

    3 February, Monday

    Time Temperature Precipitation Wind Pressure Humidity
    00:00 +20°C° 0 mm 1 mps 760 mmHg 40%
    01:00 +19°C° 0 mm 1 mps 760 mmHg 40%
    02:00 +18°C° 0 mm 2 mps 760 mmHg 41%
    03:00 +17°C° 0 mm 2 mps 760 mmHg 41%
    04:00 +17°C° 0 mm 2 mps 760 mmHg 42%
    05:00 +17°C° 0 mm 2 mps 760 mmHg 43%
    06:00 +16°C° 0 mm 2 mps 760 mmHg 44%
    07:00 +18°C° 0 mm 2 mps 761 mmHg 40%
    08:00 +20°C° 0 mm 3 mps 762 mmHg 37%
    09:00 +21°C° 0 mm 3 mps 762 mmHg 33%
    10:00 +24°C° 0 mm 3 mps 762 mmHg 30%
    11:00 +26°C° 0 mm 3 mps 762 mmHg 26%
    12:00 +28°C° 0 mm 2 mps 761 mmHg 23%
    13:00 +28°C° 0 mm 2 mps 760 mmHg 23%
    14:00 +29°C° 0 mm 2 mps 760 mmHg 23%
    15:00 +29°C° 0 mm 2 mps 759 mmHg 24%
    16:00 +28°C° 0 mm 2 mps 759 mmHg 27%
    17:00 +26°C° 0 mm 2 mps 759 mmHg 30%
    18:00 +25°C° 0 mm 2 mps 758 mmHg 34%
    19:00 +23°C° 0 mm 2 mps 759 mmHg 36%
    20:00 +21°C° 0 mm 2 mps 759 mmHg 39%
    21:00 +21°C° 0 mm 1 mps 760 mmHg 41%
    22:00 +20°C° 0 mm 1 mps 760 mmHg 43%
    23:00 +20°C° 0 mm 1 mps 759 mmHg 45%
    Show more